Hourly Data Report for August 31, 2021

WINNIPEG THE FORKS
MANITOBA
Current Station Operator: ECCC - MSC

49°53'18.008" N
97°07'46.007" W
230.00 m
5023262
71579
XWN

Download Data

Hourly Data (August 2021)
Hourly Data Report for August 31, 2021
TIME
LST
Temp Definition
°C
Dew Point Definition
°C
Rel Hum Definition
%
Precip. Amount Definition
mm

Wind Dir Definition
10's deg

Wind Spd Definition
km/h
Visibility Definition
km
Stn Press Definition
kPa
Hmdx Definition


Wind Chill Definition


Weather Definition


00:00 15.1 12.0 82 0.0 0 1   98.66     LegendNANA
01:00 14.4 11.6 83 0.0 6 2   98.64     LegendNANA
02:00 13.7 11.3 85 0.0 6 1   98.62     LegendNANA
03:00 13.1 11.1 87 0.0 9 1   98.60     LegendNANA
04:00 12.7 10.9 89 0.0 0 1   98.62     LegendNANA
05:00 12.5 10.7 89 0.0 6 2   98.68     LegendNANA
06:00 12.4 10.6 89 0.0 9 2   98.75     LegendNANA
07:00 13.3 11.0 86 0.0 7 3   98.77     LegendNANA
08:00 15.9 12.6 81 0.0 7 3   98.78     LegendNANA
09:00 18.7 13.4 71 0.0 7 4   98.76     LegendNANA
10:00 20.6 13.1 62 0.0 10 4   98.72     LegendNANA
11:00 22.2 13.4 58 0.0 9 5   98.69 25   LegendNANA
12:00 23.0 12.4 51 0.0 9 4   98.67 25   LegendNANA
13:00 23.8 12.3 48 0.0 9 5   98.59 26   LegendNANA
14:00 24.9 13.2 48 0.0 8 4   98.57 28   LegendNANA
15:00 24.9 11.9 44 0.0 9 4   98.55 27   LegendNANA
16:00 25.1 11.3 42 0.0 9 6   98.51 27   LegendNANA
17:00 25.0 11.2 42 0.0 8 6   98.49 27   LegendNANA
18:00 24.5 10.4 41 0.0 10 5   98.50 26   LegendNANA
19:00 22.7 11.6 50 0.0 7 5   98.50 25   LegendNANA
20:00 20.9 11.5 55 0.0 8 4   98.52     LegendNANA
21:00 19.5 11.5 60 0.0 9 5   98.56     LegendNANA
22:00 18.2 11.1 63 0.0 8 5   98.59     LegendNANA
23:00 17.4 11.2 67 0.0 9 4   98.60     LegendNANA

Notes on Data Quality.

Legend

  • E = Estimated
  • M = Missing
  • NA = Not Available*
  • [empty] = Indicates an unobserved value
Date modified: